www.pogodaiklimat.ru

Погода и климат >> Архив погоды >> Россия >> Якутия >> Джарджан


ПОГОДА в Джарджане

  • Прогноз погоды в Джарджане
  • Монитор погоды в Джарджане
  • Климат города

АРХИВ ПОГОДЫ в Джарджане

Время (UTC), дата Ветер
(напр.,м/с)
 
Видим.   Явления Облачность Т
(С)
Тd
(С)
f
(%)
Тe
(С)
Тes
(С)
Комфортность P
(гПа)
Po
(гПа)
Тmin
(С)
Tmax
(С)
R
(мм)
R24
(мм)
S
(см)
06 23.04 С 1 50 км {снег} 8/8 600 м
[Cu med, cong]
+1.8 -3.6 67 0 +2 1024.4 1019.5
09 23.04 С 1 50 км 8/8 600 м
[Sc]
+3.9 -0.7 72 +3 +3 1024.4 1019.6
12 23.04 штиль 0 50 км ясно +1.3 -3.2 72 +1 +1 1025.1 1020.2 +4.1 0.2
15 23.04 ЮЗ 3 50 км ясно -0.3 -9.0 52 -4 -4 1025.1 1020.2
18 23.04 ЮЗ 2 50 км ясно -5.0 -10.4 66 -9 -9 1025.6 1020.6
21 23.04 штиль 0 50 км ясно -5.1 -11.5 61 -6 -5 1026.4 1021.4
00 24.04 ЮЗ 1 50 км ясно -3.1 -10.3 58 -5 -0 1025.4 1020.4 -5.8 7
03 24.04 ЮЗ 3 50 км ясно +2.2 -12.5 33 -1 +5 1023.3 1018.4
06 24.04 ЮЗ 5 50 км ясно +3.3 -10.7 35 -2 +2 1021.0 1016.2
09 24.04 ЮЗ 5 50 км 3/0
[As op]
+3.8 -8.0 42 -0 0 1019.7 1014.9
12 24.04 ЮЗ 5 50 км 10/0
[As op]
+2.8 -7.8 46 -2 -2 1019.8 1015.0 +4.2
15 24.04 ЮЗ 7 50 км 3/0
[As op]
+0.9 -6.3 59 -5 -5 1019.8 1014.9
21 24.04 ЮЗ 2 50 км 9/9 1000 м
[Sc]
-0.8 -4.6 75 -4 -4 1020.4 1015.5
00 25.04 штиль 0 50 км 9/9 600 м
[Sc]
+1.0 -3.6 71 0 +1 1021.8 1016.9 -1.0 7
03 25.04 штиль 0 50 км 8/3 600 м
[Sc Ac trans]
+2.3 -3.0 68 +2 +6 1022.1 1017.3
06 25.04 штиль 0 50 км 4/4 600 м
[Cu med, cong]
+4.4 -4.9 51 +4 +9 1021.6 1016.8
09 25.04 штиль 0 50 км 8/8 600 м
[Cu med, cong]
+4.8 -4.7 50 +4 +5 1020.3 1015.5
12 25.04 штиль 0 50 км 3/3 600 м
[Cu med, cong]
+1.6 -5.7 58 +1 +1 1018.8 1013.9 +5.1
15 25.04 штиль 0 50 км ясно -2.2 -5.6 77 -3 -3 1016.5 1011.6
18 25.04 штиль 0 50 км ясно -4.5 -6.1 89 -6 -6 1014.7 1009.7
21 25.04 штиль 0 50 км 10/0
[As op]
-4.9 -6.6 88 -6 -6 1012.0 1007.0
00 26.04 Ю 3 50 км 10/0
[As op]
+0.9 -9.1 47 -3 -2 1009.9 1005.0 -5.7 5
03 26.04 Ю 3 50 км 10/0
[As op Ci fib]
+4.2 -6.4 46 +1 +5 1008.9 1004.2
06 26.04 Ю 1 50 км 10/3 1000 м
[Sc Ci fib]
+3.6 -6.1 49 +3 +7 1007.8 1003.1
09 26.04 Ю 1 50 км 3/0
[Ci fib]
+4.1 -5.7 49 +3 +6 1007.1 1002.4
12 26.04 штиль 0 50 км 9/9 1000 м
[Sc]
+3.0 -6.2 51 +3 +3 1007.1 1002.4 +4.8
15 26.04 штиль 0 50 км 10/10 1000 м
[Sc]
+1.3 -6.2 57 +1 +1 1006.3 1001.5
18 26.04 штиль 0 50 км 10/10 1000 м
[Sc]
+0.3 -5.6 65 -0 -0 1005.5 1000.7
21 26.04 штиль 0 50 км 10/10 1000 м
[Sc]
-2.3 -6.3 74 -3 -3 1005.5 1000.6
00 27.04 штиль 0 50 км 8/8 1000 м
[Sc]
+2.7 -3.9 62 +2 +3 1005.0 1000.3 -2.5 4
03 27.04 штиль 0 50 км 8/8 600 м
[Cu med, cong]
+4.5 -4.7 51 +4 +6 1004.9 1000.2
06 27.04 штиль 0 50 км 9/9 600 м
[Sc]
+5.8 -2.5 55 +5 +6 1004.7 1000.0
09 27.04 штиль 0 50 км 10/0
[Ac As]
+4.9 -2.3 60 +4 +5 1004.5 999.8
12 27.04 штиль 0 50 км 10/0
[Ac und]
+3.3 -2.1 68 +3 +3 1004.8 1000.1 +6.2
15 27.04 штиль 0 50 км 10/0
[Ci fib]
+1.2 -0.5 88 0 0 1004.9 1000.1
18 27.04 штиль 0 50 км 10/0
[Ac As]
-0.2 -0.5 98 -2 -2 1004.6 999.8
21 27.04 С 3 20 км слабый снег 10/0
[As op]
-1.1 -1.5 97 -6 -6 1003.7 998.9
00 28.04 С 3 20 км слабый снег 10/0
[As op]
-2.6 -3.6 93 -8 -7 1003.4 998.6 -2.6 0.2 3
03 28.04 С 3 50 км {снег} 10/0
[As op]
-1.7 -5.5 75 -6 -5 1002.7 997.9
06 28.04 С 1 50 км 10/0
[Ac As]
-0.5 -5.7 68 -2 0 1002.7 997.9
09 28.04 С 1 50 км 10/0
[As op]
-0.9 -5.8 69 -3 -2 1002.9 998.1
12 28.04 С 3 50 км 10/0
[As op]
-2.4 -6.4 74 -7 -7 1004.7 999.9 -0.4 0.1
15 28.04 С 3 50 км 10/0
[Ac As]
-5.3 -8.2 80 -11 -11 1005.8 1000.9
18 28.04 С 3 50 км 10/0
[Ac As]
-6.1 -8.4 84 -12 -12 1006.7 1001.8
21 28.04 С 3 50 км 10/0
[Ac As]
-6.3 -8.2 86 -12 -12 1007.7 1002.8
00 29.04 С 3 20 км слабый снег 10/0
[Ac As]
-7.7 -10.8 78 -13 -12 1008.9 1004.0 -8.9 0.1 3
03 29.04 С 3 20 км слабый снег 10/0
[As op]
-7.1 -11.4 71 -13 -11 1009.4 1004.5
06 29.04 С 1 50 км {снег} 10/0
[Ac As]
-4.4 -12.4 54 -6 -4 1010.0 1005.0
09 29.04 С 1 50 км 10/0
[Ac As]
-4.0 -12.1 53 -6 -5 1009.8 1004.9
12 29.04 С 1 50 км 6/0
[Ac As]
-5.2 -12.1 58 -7 -7 1009.5 1004.6 -3.7 0.3
15 29.04 штиль 0 50 км 3/0
[As op]
-9.0 -14.0 67 -9 -9 1010.2 1005.1
18 29.04 штиль 0 50 км ясно -10.3 -13.9 75 -11 -11 1010.7 1005.6
21 29.04 штиль 0 50 км ясно -12.3 -14.3 85 -12 -11 1007.7 1002.7

 

Местоположение метеостанции Джарджан (Якутия, Россия): широта 68.73 долгота 124.00 высота над уровнем моря 39 м.

В архиве по умолчанию представлена погода в Джарджане за последнюю неделю. Архивные данные за месяц целиком и за предыдущие месяцы, начиная с января 2011 года, Вы можете получить, выбрав интересующий диапазон дат из раскрывающегося списка и нажав кнопку "Ввод!".

Внимание! Время в таблицах - всемирное. Для получения местного времени необходимо прибавить поправку, которая в Джарджане равна 9 ч.

Смотрите также архив погоды в соседних городах и на ближайших метеорологических станциях:

Погода в Жиганске (Якутия, Россия) (219 км)
Погода в Сухане (Якутия, Россия) (231 км)
Погода в Кюсюре (Якутия, Россия) (253 км)
Погода в Батагай-Алыте (Якутия, Россия) (284 км)
Погода в Тюмяти (Якутия, Россия) (355 км)
Погода в Тикси (Якутия, Россия) (367 км)
Погода в Бестяхской Звероферме (Якутия, Россия) (382 км)
Погода в Екюччю (Якутия, Россия) (387 км)
Погода в Верхоянске (Якутия, Россия) (409 км)
Погода на Мысе Быков (Якутия, Россия) (410 км)

Пояснения к столбцам:

Ветер - указаны скорость ветра в м/с - средняя за 10 мин, порывы в срок и между сроками (в фигурных скобках) и направление, откуда дует ветер: С - северный, СВ - северо-восточный, В - восточный, ЮВ - юго-восточный, Ю - южный, ЮЗ - юго-западный, З - западный, СЗ - северо-западный.
Видимость - горизонтальная дальность видимости в метрах или километрах. При видимости от 1 до 10 км при отсутствии осадков обычно наблюдается дымка, при ухудшении видимости до 1 км и менее - туман. В сухую погоду видимость может ухудшаться дымом, пылью или мглою.
Явления - указаны атмосферные явления, наблюдавшиеся в срок или в последний час перед сроком; фигурными скобками обозначены явления, наблюдавшиеся между сроками (за 1-3 часа до срока); квадратными скобками обозначены град или гололедные отложения с указанием их диаметра в мм.
Облачность - указаны через наклонную черту общая и нижняя облачность в баллах и высота нижней границы облаков в метрах; квадратными скобками обозначены формы облаков: Ci - перистые, Cs - перисто-слоистые, Cc - перисто-кучевые, Ac - высококучевые, As - высокослоистые, Sc - слоисто-кучевые, Ns - слоисто-дождевые, Cu - кучевые, Cb - кучево-дождевые. Подробнее классификацию облаков см. в Атласе облаков (PDF).
T - Температура воздуха - температура, измеренная на высоте 2 м над землей.
Td - Температура точки росы - температура, при понижении до которой содержащийся в воздухе водяной пар достигнет насыщения.
f - Относительная влажность воздуха - влажноcть воздуха, измеренная на высоте 2 м над землей.
Te - Эффективная температура - температура, которую ощущает одетый по сезону человек в тени. Характеристика душности погоды. При расчете учитывается влияние влажности воздуха и скорости ветра на теплоощущения человека.
Tes - Эффективная температура на солнце - температура, которую ощущает человек, с поправкой на солнечный нагрев. Характеристика знойности погоды. Зависит от высоты солнца над горизонтом, облачности и скорости ветра. Ночью, в пасмурную погоду, а также при ветре 12 м/с и более поправка равна нулю.
P - Атмосферное давление - приведенное к уровню моря атмосферное давление.
Po - Атмосферное давление - измеренное на уровне метеостанции атмосферное давление.
Tmin - Минимальная температура - минимум температуры воздуха на высоте 2 м над землей.
Tmax - Максимальная температура - максимум температуры воздуха на высоте 2 м над землей.
R - Количество осадков - Количество выпавших осадков за период времени, мм. При наведении курсора мыши на число - период времени, за который выпало указанное количество осадков.
R24 - Количество осадков - Количество выпавших осадков за 24 часа, мм.
S - Снежный покров - Высота снежного покрова, см. При наведении курсора мыши на число - состояние снежного покрова и степень покрытия местности в баллах.